Linden, NJ

3:22 PM EDT on September 26, 2016 (GMT -0400)
Linden

Weather History for KLDJ - December, 2012

Change the Weather History Date:

Sunday, December 16, 2012

  Actual Average (KEWR) Record (KEWR)
Temperature  
Mean Temperature 48 °F 36 °F  
Max Temperature 50 °F 43 °F 65 °F (1971)
Min Temperature 45 °F 29 °F 10 °F (1942)
Degree Days  
Heating Degree Days 18 29  
Month to date heating degree days 419  
Since 1 July heating degree days 1287  
Cooling Degree Days 0 0  
Month to date cooling degree days 0  
Year to date cooling degree days 1192  
Moisture  
Dew Point 44 °F    
Average Humidity 86    
Maximum Humidity 95    
Minimum Humidity 69    
Precipitation  
Precipitation 0.24 in 0.12 in 1.19 in (1974)
Month to date precipitation 2.05  
Year to date precipitation 44.49  
Snow  
Snow 0.00 in 0.20 in 1.60 in (2008)
Month to date snowfall 2.1  
Since 1 July snowfall 2.5  
Snow Depth -    
Sea Level Pressure  
Sea Level Pressure 30.04 in    
Wind  
Wind Speed 7 mph (ENE)    
Max Wind Speed 14 mph    
Max Gust Speed 18 mph    
Visibility 7 miles    
Events Rain    
T = Trace of Precipitation, MM = Missing Value Source: NWS Daily Summary

Daily Weather History Graph

Daily Weather History Graph

Search for Another Location

Airport or City:

Trip Planner

Search our weather history database for the weather conditions in past years. The results will help you decide how hot, cold, wet, or windy it might be!

Date:

Astronomy

Dec. 16, 2012 Rise Set
Actual Time 7:14 AM EST 4:31 PM EST
Civil Twilight 6:43 AM EST 5:02 PM EST
Nautical Twilight 6:09 AM EST 5:36 PM EST
Astronomical Twilight 5:35 AM EST 6:09 PM EST
Moon 9:45 AM EST (12/16) 8:43 PM EST (12/16)
Length of Visible Light 10h 18m
Length of Day
9h 16m
Waxing Crescent, 16% of the Moon is Illuminated
Dec 16
Waxing Crescent
Dec 20
First Quarter
Dec 28
Full
Jan 4
Last Quarter
Jan 11
New

Hourly Weather History & Observations

Time (EST) Temp. Windchill Dew Point Humidity Pressure Visibility Wind Dir Wind Speed Gust Speed Precip Events Conditions
12:15 AM 45.9 °F 43.6 °F 36.1 °F 69% 30.20 in 10.0 mi East 4.6 mph - N/A   Mostly Cloudy
12:35 AM 45.9 °F 44.6 °F 36.5 °F 70% 30.20 in 10.0 mi East 3.5 mph - N/A   Mostly Cloudy
12:55 AM 45.9 °F 43.6 °F 36.7 °F 70% 30.20 in 10.0 mi East 4.6 mph - N/A   Overcast
1:15 AM 45.9 °F 43.6 °F 37.0 °F 71% 30.19 in 10.0 mi East 4.6 mph - N/A   Overcast
1:35 AM 46.0 °F 43.9 °F 37.2 °F 71% 30.19 in 10.0 mi East 4.6 mph - N/A   Overcast
1:55 AM 46.0 °F - 37.4 °F 72% 30.20 in 10.0 mi Calm Calm - N/A   Overcast
2:15 AM 46.0 °F 43.9 °F 37.8 °F 73% 30.19 in 10.0 mi ENE 4.6 mph - N/A   Overcast
2:55 AM 46.9 °F - 38.3 °F 72% 30.18 in 10.0 mi East 4.6 mph - N/A   Overcast
3:15 AM 46.8 °F - 38.3 °F 72% 30.15 in 10.0 mi East 8.1 mph - N/A   Overcast
3:55 AM 46.9 °F - 39.2 °F 74% 30.14 in 10.0 mi East 4.6 mph - N/A   Overcast
4:15 AM 47.3 °F - 41.0 °F 79% 30.14 in 10.0 mi East 5.8 mph - N/A   Overcast
4:35 AM 47.5 °F - 41.5 °F 80% 30.14 in 10.0 mi East 5.8 mph - N/A   Overcast
4:55 AM 47.8 °F - 42.1 °F 80% 30.14 in 10.0 mi East 6.9 mph - N/A   Overcast
5:15 AM 48.2 °F - 42.1 °F 79% 30.14 in 10.0 mi East 10.4 mph - N/A   Overcast
5:35 AM 48.2 °F - 42.1 °F 79% 30.13 in 10.0 mi East 6.9 mph - N/A   Overcast
6:15 AM 48.2 °F - 42.3 °F 80% 30.12 in 10.0 mi ESE 9.2 mph - N/A   Overcast
6:55 AM 48.7 °F - 42.4 °F 79% 30.12 in 10.0 mi ESE 6.9 mph - N/A   Overcast
7:15 AM 49.1 °F - 42.8 °F 79% 30.11 in 10.0 mi ESE 8.1 mph - N/A   Overcast
7:35 AM 49.3 °F - 43.2 °F 79% 30.11 in 10.0 mi East 8.1 mph - N/A   Overcast
7:55 AM 49.5 °F - 43.3 °F 79% 30.10 in 10.0 mi East 12.7 mph - N/A   Overcast
8:15 AM 49.5 °F - 43.3 °F 79% 30.10 in 10.0 mi East 10.4 mph - N/A   Overcast
8:35 AM 49.5 °F - 43.7 °F 81% 30.09 in 10.0 mi East 10.4 mph - N/A   Overcast
8:55 AM 50.0 °F - 43.9 °F 79% 30.09 in 10.0 mi East 10.4 mph - N/A   Overcast
9:15 AM 50.0 °F - 44.6 °F 82% 30.09 in 10.0 mi East 9.2 mph - N/A   Overcast
9:35 AM 50.2 °F - 44.8 °F 82% 30.09 in 10.0 mi ENE 5.8 mph - N/A   Overcast
9:55 AM 50.5 °F - 45.5 °F 83% 30.09 in 10.0 mi ENE 4.6 mph - N/A   Overcast
10:15 AM 50.9 °F - 46.6 °F 85% 30.08 in 7.0 mi East 8.1 mph - N/A   Overcast
10:35 AM 50.9 °F - 47.3 °F 87% 30.08 in 7.0 mi East 11.5 mph - N/A   Overcast
10:55 AM 50.9 °F - 47.3 °F 87% 30.06 in 10.0 mi East 11.5 mph 18.4 mph N/A   Overcast
11:15 AM 50.2 °F - 46.8 °F 88% 30.05 in 4.0 mi East 13.8 mph 18.4 mph N/A   Overcast
11:35 AM 50.0 °F - 46.9 °F 89% 30.04 in 2.0 mi East 12.7 mph - N/A Rain Light Rain
11:55 AM 49.5 °F - 47.3 °F 92% 30.03 in 1.2 mi ESE 9.2 mph 17.3 mph N/A Rain Light Rain
12:35 PM 49.1 °F - 47.3 °F 93% 30.02 in 1.5 mi East 10.4 mph - 0.01 in Rain Light Rain
12:55 PM 49.1 °F - 47.3 °F 93% 30.01 in 1.5 mi East 10.4 mph - 0.02 in   Drizzle
1:15 PM 48.7 °F - 47.1 °F 94% 30.01 in 3.0 mi East 11.5 mph - 0.01 in Rain Light Rain
1:35 PM 48.6 °F - 46.6 °F 93% 30.00 in 5.0 mi East 10.4 mph - 0.01 in   Light Drizzle
1:55 PM 48.6 °F - 46.6 °F 93% 30.00 in 4.0 mi East 9.2 mph - 0.01 in   Light Drizzle
2:15 PM 48.4 °F - 46.6 °F 93% 29.99 in 1.8 mi East 9.2 mph - 0.01 in Rain Light Rain
2:35 PM 48.2 °F - 46.6 °F 94% 29.99 in 2.0 mi East 11.5 mph - 0.01 in   Light Drizzle
2:55 PM 48.2 °F - 46.4 °F 93% 29.99 in 1.8 mi ENE 11.5 mph 18.4 mph 0.02 in   Drizzle
3:15 PM 47.8 °F - 46.4 °F 95% 29.98 in 1.8 mi ENE 11.5 mph - 0.01 in Rain Rain
3:35 PM 47.7 °F - 46.0 °F 94% 29.98 in 2.0 mi ENE 10.4 mph - 0.02 in Rain Rain
3:55 PM 47.5 °F - 45.9 °F 94% 29.98 in 3.0 mi ENE 10.4 mph - 0.02 in   Light Drizzle
4:15 PM 47.5 °F - 45.9 °F 94% 29.98 in 4.0 mi ENE 11.5 mph - N/A   Light Drizzle
4:35 PM 47.3 °F - 45.7 °F 94% 29.97 in 2.0 mi ENE 10.4 mph - 0.01 in Rain Light Rain
4:55 PM 47.3 °F - 45.9 °F 95% 29.97 in 2.0 mi ENE 9.2 mph - 0.03 in Rain Light Rain
5:15 PM 47.3 °F - 45.9 °F 95% 29.96 in 2.0 mi ENE 13.8 mph - 0.02 in Rain Light Rain
5:35 PM 47.3 °F - 45.7 °F 94% 29.96 in 3.0 mi NE 8.1 mph - 0.02 in Rain Light Rain
5:55 PM 47.3 °F - 45.5 °F 93% 29.95 in 3.0 mi ENE 10.4 mph - 0.03 in   Drizzle
6:15 PM 47.1 °F - 45.5 °F 94% 29.97 in 2.5 mi NE 8.1 mph - N/A   Drizzle
6:55 PM 46.0 °F 41.9 °F 44.6 °F 95% 29.96 in 4.0 mi North 8.1 mph - 0.01 in   Light Drizzle
7:15 PM 45.7 °F 41.5 °F 44.2 °F 95% 29.95 in 4.0 mi NNE 8.1 mph - N/A   Light Drizzle
7:55 PM 46.0 °F 40.6 °F 44.4 °F 94% 29.93 in 5.0 mi NE 11.5 mph 16.1 mph N/A   Overcast
8:15 PM 46.0 °F 40.2 °F 44.4 °F 94% 29.93 in 7.0 mi NE 12.7 mph 17.3 mph N/A   Overcast
8:35 PM 46.4 °F 41.9 °F 44.6 °F 93% 29.93 in 7.0 mi NE 9.2 mph 17.3 mph N/A   Overcast
8:55 PM 46.8 °F - 44.6 °F 92% 29.93 in 10.0 mi ENE 9.2 mph - N/A   Overcast
9:15 PM 46.8 °F - 44.6 °F 92% 29.92 in 10.0 mi ENE 9.2 mph - N/A   Overcast
9:35 PM 46.4 °F 43.5 °F 44.1 °F 92% 29.92 in 10.0 mi NE 5.8 mph - N/A   Drizzle
9:55 PM 45.5 °F 41.8 °F 43.7 °F 93% 29.93 in 7.0 mi NNE 6.9 mph - N/A   Drizzle
10:15 PM 45.5 °F 42.5 °F 43.7 °F 93% 29.92 in 4.0 mi NE 5.8 mph - 0.01 in   Drizzle
10:35 PM 45.5 °F 43.2 °F 43.9 °F 94% 29.92 in 4.0 mi NNE 4.6 mph - 0.03 in Rain Light Rain
10:55 PM 45.5 °F 42.5 °F 44.1 °F 95% 29.93 in 5.0 mi North 5.8 mph - 0.05 in Rain Rain
11:15 PM 45.1 °F 41.4 °F 43.7 °F 95% 29.92 in 5.0 mi NNE 6.9 mph - 0.02 in   Drizzle
11:35 PM 45.1 °F 42.8 °F 43.7 °F 95% 29.92 in 5.0 mi NE 4.6 mph - 0.03 in   Drizzle
11:55 PM 45.1 °F 39.9 °F 43.7 °F 95% 29.90 in 5.0 mi NE 10.4 mph - 0.05 in Rain Rain